This is the latest recevied weather packets stored in our database for station/object N5JXS. If no packets are shown the sender has not sent any weather packets the latest 10 day(s).
| Time | Temp. | Humidity | Pressure | Rain* | Wind** | Luminosity | Snow |
|---|---|---|---|---|---|---|---|
| 1777485105 | 6.11° C | 75% | 1021.5 hPa | 0 mm | - | 258 W/m² | - |
| 1777484803 | 6.11° C | 79% | 1021.4 hPa | 0 mm | - | 668 W/m² | - |
| 1777484499 | 5.56° C | 79% | 1022 hPa | 0 mm | - | 258 W/m² | - |
| 1777484196 | 6.11° C | 80% | 1021.9 hPa | 0 mm | - | 186 W/m² | - |
| 1777483892 | 5.56° C | 81% | 1022.4 hPa | 0 mm | - | 478 W/m² | - |
| 1777483589 | 5° C | 83% | 1022.1 hPa | 0 mm | - | 360 W/m² | - |
| 1777483288 | 4.44° C | 85% | 1022.4 hPa | 0 mm | - | 186 W/m² | - |
| 1777482985 | 4.44° C | 86% | 1022.1 hPa | 0 mm | - | 192 W/m² | - |
| 1777482681 | 3.89° C | 86% | 1022.4 hPa | 0 mm | - | 205 W/m² | - |
| 1777482378 | 3.89° C | 87% | 1022.7 hPa | 0 mm | - | 186 W/m² | - |
| 1777482076 | 3.89° C | 87% | 1022.6 hPa | 0 mm | - | 144 W/m² | - |
| 1777481774 | 3.89° C | 88% | 1022.4 hPa | 0 mm | - | 188 W/m² | - |
| 1777481470 | 3.89° C | 89% | 1022.7 hPa | 0 mm | - | 138 W/m² | - |
| 1777481166 | 3.33° C | 89% | 1022.6 hPa | 0 mm | - | 87 W/m² | - |
| 1777480863 | 3.33° C | 90% | 1023.1 hPa | 0 mm | - | 104 W/m² | - |
| 1777480560 | 2.78° C | 90% | 1023 hPa | 0 mm | - | 113 W/m² | - |
| 1777480257 | 2.78° C | 90% | 1023 hPa | 0 mm | - | 129 W/m² | - |
| 1777479953 | 2.78° C | 90% | 1022.9 hPa | 0 mm | - | 81 W/m² | - |
| 1777479650 | 2.78° C | 90% | 1022.7 hPa | 0 mm | - | 83 W/m² | - |
| 1777479348 | 2.78° C | 90% | 1023 hPa | 0 mm | - | 89 W/m² | - |
| 1777479044 | 2.78° C | 91% | 1023 hPa | 0 mm | - | 116 W/m² | - |
| 1777478741 | 2.78° C | 91% | 1023 hPa | 0 mm | - | 63 W/m² | - |
| 1777478437 | 2.78° C | 92% | 1022.9 hPa | 0 mm | - | 100 W/m² | - |
| 1777478134 | 2.22° C | 93% | 1023 hPa | 0 mm | - | 166 W/m² | - |
| 1777477830 | 2.22° C | 93% | 1023 hPa | 0 mm | - | 70 W/m² | - |
* Rain latest hour (hover to see other rain measurements)
** Current wind speed in m/s (hover to see current wind gust speed)